Regional Weather Roundup
Issued by NWS Wakefield, VA

Home | Current Version | Previous Version | Text Only | Print | Product List | Glossary On
Versions: 1 2 3 4 5 6 7 8 9 10 11 12 13 14 15 16 17 18 19 20 21 22 23 24 25 26 27
000
ASUS41 KAKQ 160215
RWRAKQ

REGIONAL WEATHER ROUNDUP
NATIONAL WEATHER SERVICE WAKEFIELD VA
900 PM EST FRI DEC 15 2017

Note: "fair" indicates few or no clouds below 12,000 feet with no
significant weather and/or obstructions to visibility. * = Denotes
station may not report precipitation (e.g., rain,snow,etc.),
thunder or fog.

VAZ042-051-052>054-056-160300-
NORTHERN VIRGINIA

CITY           SKY/WX    TMP DP  RH WIND       PRES   REMARKS
WASH NATIONAL  PTCLDY    28  24  85 SW5       30.02R
DULLES         MOCLDY    22  22 100 S3        30.00R
FORT BELVOIR   CLEAR     23  21  91 CALM      30.02R
QUANTICO       CLEAR     28  24  85 CALM      30.04R
FREDERICKSBRG* CLEAR     24  22  93 CALM      30.02S
STAFFORD*      CLEAR     22  22 100 CALM      30.06R
WARRENTON      CLEAR     18  13  83 CALM      30.00R
CULPEPER*      CLEAR     18  15  88 CALM      30.02R
MANASSAS*      PTCLDY    19  17  92 CALM      30.01S FOG
LEESBURG*      CLOUDY    25  25 100 SW3       29.99S
WINCHESTER     MOCLDY    32  16  51 W13       29.96R WCI  22
FRONT ROYAL*   PTCLDY    32  18  55 MISG      29.96R
LURAY*         CLEAR     32  19  59 S3        29.97R
$$

VAZ048-049-060>072-079>083-160300-
CENTRAL AND SOUTH CENTRAL VIRGINIA

CITY           SKY/WX    TMP DP  RH WIND       PRES   REMARKS
RICHMOND       CLEAR     31  20  63 CALM      30.02R
CHESTERFIELD*  NOT AVBL
PETERSBURG*    CLEAR     23  19  86 CALM      30.03S
HANOVER        CLEAR     23  19  85 CALM      30.03S
TAPPAHANNOCK*  CLEAR     24  20  86 CALM      30.03R
QUINTON*       FAIR      25  20  82 CALM      30.02R
CHARLOTTSVILLE CLEAR     26  21  81 CALM      29.99R
GORDONSVILLE*  CLEAR     20  19  96 SW3       30.00R
ORANGE*        CLEAR     21  19  93 CALM      30.00S
LOUISA*        CLEAR     17  15  92 CALM      30.05R
BUMPASS*       FAIR      22  18  86 CALM      30.01R
FARMVILLE*     CLEAR     27  24  87 CALM      30.01R
CREWE*         FAIR      26  22  85 CALM      30.02R
FORT PICKETT*  NOT AVBL
CHASE CITY*    FAIR      32  22  66 W6        30.04R
CLARKSVILLE*   FAIR      30  27  86 CALM      30.04R
SOUTH HILL*    CLEAR     30  25  81 W3        30.10R
LAWRENCEVILLE* FAIR      29  22  76 CALM      30.04R
EMPORIA*       CLOUDY    28  23  80 MISG      30.06R
$$

VAZ088>098-160300-
SOUTHEAST VIRGINIA

CITY           SKY/WX    TMP DP  RH WIND       PRES   REMARKS
NORFOLK        PTCLDY    35  24  64 NW3       30.02R
VIRGINIA BEACH MOCLDY    34  22  61 NW8       30.02R
NORFOLK NAVAL  CLOUDY    35  23  61 NW12      30.04R
WEST POINT*    CLEAR    N/A N/A N/A CALM      30.05R
SALUDA*        FAIR      27  20  76 CALM      30.02S
NEWPORT NEWS   CLEAR     29  20  69 NW5       30.03R
LANGLEY AFB    PTCLDY    30  20  66 NW5       30.02R
FORT EUSTIS    CLEAR     32  21  62 NW8       30.01R
WILLIAMSBURG*  CLEAR     28  21  74 CALM      30.04R
HR EXEC AP*    FAIR      32  24  72 VRB3      30.05R
FRANKLIN*      CLOUDY    31  23  71 CALM      30.05R
US460-WAKEFLD  CLEAR     27  22  81 CALM      30.04R
$$

VAZ020-022-025-037-045-160300-
WEST CENTRAL AND SOUTHWEST VIRGINIA

CITY           SKY/WX    TMP DP  RH WIND       PRES   REMARKS
STAUNTON*      CLEAR     29  15  57 W5        29.99R
WAYNESBORO*    CLEAR     29  15  55 W5        29.96R
HOT SPRINGS VA CLOUDY    21  13  69 W26G43    29.85R WCI   4
LYNCHBURG      CLEAR     32  17  54 VRB6      30.00R
DANVILLE       CLEAR     30  22  72 W7        30.06R
SOUTH BOSTON*  FAIR      29  22  77 CALM      30.05R
MARTINSVILLE   CLEAR     28  19  67 CALM      30.08R
ROANOKE        CLOUDY    33  17  51 W25G33    30.06R WCI  20
BLACKSBURG     CLOUDY    29  18  63 NW17G30   30.05R WCI  17
DUBLIN*        CLOUDY    31  18  59 NW14G28   30.05R WCI  21
MARION*        CLOUDY    28  15  58 W22G30    30.03S WCI  15
HILLSVILLE*    CLOUDY    26  16  66 NW15G21   29.99R WCI  14
RICHLANDS*     CLOUDY    26  17  67 W8        30.06S
WISE*          CLOUDY    28  21  74 W5        30.08S
ABINGDON*      CLOUDY    30  21  67 W9        30.11R
$$

MDZ021>025-VAZ099-100-160300-
SOUTHERN MARYLAND AND THE DELMARVA PENINSULA

CITY           SKY/WX    TMP DP  RH WIND       PRES   REMARKS
PATUXENT RIVER PTCLDY    27  24  89 W6        30.02R
BAY BRIDGE APT CLEAR     28  25  86 MISG      30.01R
LEONARDTOWN    CLEAR     28  25  86 CALM      30.03R
DOVER          PTCLDY    23  23 100 W6        29.99R
GEORGETOWN     CLOUDY    28  24  85 W5        30.00R
EASTON         CLOUDY    27  25  93 CALM      30.03R FOG
CAMBRIDGE      CLEAR     28  27  93 CALM      30.01R
SALISBURY      CLOUDY    28  27  96 W5        30.00R
OCEAN CITY     CLOUDY    29  27  92 NW9       29.99R
WALLOPS ISLAND CLOUDY    31  27  85 NW8       30.01R
ACCOMACK*      CLOUDY    35  30  83 NW9       30.01R
$$

NCZ012>017-030>032-160300-
NORTH CENTRAL AND EASTERN NORTH CAROLINA

CITY           SKY/WX    TMP DP  RH WIND       PRES   REMARKS
ROANOKE RAPIDS FAIR      32  28  86 CALM      30.06R
RALEIGH        PTCLDY    32  26  78 CALM      30.06R
ELIZABETH CITY CLEAR     37  29  72 W10       30.03R
AHOSKIE*       CLEAR     34  26  72 CALM      30.05R
EDENTON*       CLEAR     40  30  65 NW7       30.05R
CURRITUCK*     CLEAR     37  27  67 W9G16     30.02R
KILL DEVIL HLS CLEAR     40  29  65 NW5G16    30.00R
MANTEO         CLEAR     41  30  64 NW12G22   30.02R
CAPE HATTERAS  CLOUDY    46  34  62 NW15G25   30.00R
TARBORO*       NOT AVBL
GOLDSBORO      PTCLDY    40  29  63 CALM      30.04R
WASHINGTON     MOCLDY    41  28  59 NW6       30.05R
GREENVILLE     PTCLDY    39  28  65 NW3       30.08R
NEW BERN       PTCLDY    43  31  62 NW5       30.06R
WILMINGTON     MOCLDY    50  36  58 N10       30.05R
$$

VAZ048-160300-
ELSEWHERE

CITY           SKY/WX    TMP DP  RH WIND       PRES   REMARKS
HARRISBURG PA  MOCLDY    21  19  92 CALM      29.94S
BALTIMORE      PTCLDY    20  19  96 SW3       29.99R
ANNAPOLIS      CLEAR     26  26 100 CALM      30.01R FOG
ANDREWS AFB    CLEAR     25  23  91 W5        29.99R
PHILADELPHIA   PTCLDY    25  20  81 W10       29.98R WCI  15
HENDERSON NC   CLEAR     30  23  74 CALM      30.05R
GREENSBORO     PTCLDY    28  22  78 W5        30.06R
ROCKY MOUNT    CLEAR     34  28  79 CALM      30.06R
$$

VAZ100-160300-
MARINE

STATION/POSITION TIME  TEMP    WIND        PRES    WAVE   SWELL
                       AIR SEA DIR/SP/G            HT/PER HT/PER
                 (UTC) (F)     (DEG/KT/KT) (MB)    (FT/S) (FT/S)
BRANDYWINE LGT   0142   31     330/ 11/ 16 1015.2R
CAPE MAY NJ      0148   30 43  320/ 14/ 19 1014.5R
LEWES DE         0142   29 40  300/ 14/ 16 1015.0R
15NM E FENWICK I 0150   37 52  310/ 19/ 25 1014.3R   4/ 5
OCEAN-CITY-INLET 0142   30 45  330/  9/ 11 1015.4R
WACHAPREAGUE VA  0142   33 38  300/  2/  6 1015.9R
THOMAS POINT MD  0200   28 43  280/ 10/ 11   N/A
GOOSES REEF MD   0200   30 45  260/ 12/ 14 1016.7    1/ 2
COVE POINT MD    0142   28     300/  7/ 10 1016.9R
SOLOMONS ISLAND  0142   29 45  300/  7/  9 1016.2R
BISHOPS HEAD MD  0142   31 35  310/  8/  9 1016.5R
PINEY POINT MD   0142          290/  8/ 10   N/A
POTOMAC MD       0200   33 45  290/ 12/ 16 1016.0    1/ 2
CAMBRIDGE MD     0142   29 38              1016.6R
LEWISETTA VA     0142   30 40  300/  7/  7 1016.7R
RAPPAHANNOCK LGT 0142          300/ 14/ 17 1016.9R
STINGRAY PT      0200   33 45  320/ 10/ 12 1016.8    1/ 2
YORK RVR RNG VA  0142   32     330/ 12/ 14 1017.2R
YORKTOWN VA      0142   33 46  290/  8/ 10 1016.4R
JAMESTOWN VA     0200      44   10/  4/  6   N/A     0
DOMINION TERM VA 0142   36     320/ 16/ 19 1016.6R
KIPTOPEKE VA     0142      45  320/ 19/ 22   N/A
CAPE HENRY VA    0142   35     310/ 18/ 22   N/A
WILLOUBY STN VA  0142          320/ 11/ 13 1016.6R
S CRANEY ISL VA  0142   34     280/  7/ 12 1016.5R
CAPE HENRY BUOY  0130      53                N/A     4/ 4
1ST LANDING BUOY 0200   36 47  330/ 17/ 23 1016.5    3/ 3
CAPE CHARLES BUO 0151      51                N/A     3/ 4
64NM E OF VA BCH 0150   43 59  310/ 27/ 33 1014.4R   8/ 6
DUCK PIER NC     0142   40 53  300/ 17/ 21 1015.6R
44100 DUCK FRF   0145      54                N/A     4/ 5
44056 DUCK FRF   0130      54                N/A     3/ 5
OREGON INLET NC  0142   42 48  300/ 16/ 23 1015.7R
HATTERAS NC      0142   47 55  320/ 23/ 25 1015.6R
DIAMOND SHLS NC  0150   52 73  320/ 25/ 31 1015.3R   6/ 7   2/10
CAPE LOOKOUT NC  0200          330/ 20/ 24 1016.7R
$$




USA.gov is the U.S. government's official web portal to all federal, state and local government web resources and services.